Location: Eastlake (historical)
(39.0077°N, 122.6678°W)
Time: 13:13:28
(UTC+00:00)

Cosmos 158 Rocket - Pass Details

Date: 25 November 2020
Orbit: 698 x 794 km, 74.0° (Epoch: 26 January)

Event Time Altitude Azimuth Distance (km) Brightness Sun altitude
Exits shadow 13:38:51 - 346° (NNW) 2,633 6.5 -16.5°
Reaches altitude 10° 13:40:01 10° 348° (NNW) 2,175 6.1 -16.3°
Maximum altitude 13:44:53 64° 70° (ENE) 786 4.3 -15.4°
Drops below altitude 10° 13:49:48 10° 152° (SSE) 2,201 7.0 -14.5°
Sets 13:52:10 0° 155° (SSE) 3,132 7.8 -14.0°
